Date,TemperatureHighF,TemperatureAvgF,TemperatureLowF,DewpointHighF,DewpointAvgF,DewpointLowF,HumidityHigh,HumidityAvg,HumidityLow,PressureMaxIn,PressureMinIn,WindSpeedMaxMPH,WindSpeedAvgMPH,GustSpeedMaxMPH,PrecipitationSumIn
2013-3-1,36,30,25,-100,-100,-100,0,0,100,0.00,40.00,0,-999,0,0.00
2013-3-2,37,25,17,-100,-100,-100,0,0,100,0.00,40.00,0,-999,0,0.00
2013-3-3,46,38,32,-100,-100,-100,0,0,100,0.00,40.00,0,-999,0,0.00
2013-3-4,44,39,32,-100,-100,-100,0,0,100,0.00,40.00,0,-999,0,0.00
2013-3-5,43,33,25,-100,-100,-100,0,0,100,0.00,40.00,0,-999,0,0.00
2013-3-6,47,33,21,-100,-100,-100,0,0,100,0.00,40.00,0,-999,0,0.00
2013-3-7,62,47,32,-100,-100,-100,0,0,100,0.00,40.00,0,-999,0,0.00
2013-3-8,63,52,40,-100,-100,-100,0,0,100,0.00,40.00,0,-999,0,0.00
2013-3-9,62,54,40,-100,-100,-100,0,0,100,0.00,40.00,0,-999,0,0.00
2013-3-10,35,30,28,-100,-100,-100,0,0,100,0.00,40.00,0,-999,0,0.00
2013-3-11,49,38,19,-100,-100,-100,0,0,100,0.00,40.00,0,-999,0,0.00
2013-3-12,51,41,29,-100,-100,-100,0,0,100,0.00,40.00,0,-999,0,0.00
2013-3-13,58,40,25,-100,-100,-100,0,0,100,0.00,40.00,0,-999,0,0.00
2013-3-14,79,61,40,-100,-100,-100,0,0,100,0.00,40.00,0,-999,0,0.00
2013-3-15,87,67,45,-100,-100,-100,0,0,100,0.00,40.00,0,-999,0,0.00
2013-3-16,59,46,36,-100,-100,-100,0,0,100,0.00,40.00,0,-999,0,0.00
2013-3-17,43,38,32,-100,-100,-100,0,0,100,0.00,40.00,0,-999,0,0.00
2013-3-18,58,44,35,-100,-100,-100,0,0,100,0.00,40.00,0,-999,0,0.00
2013-3-19,54,43,31,-100,-100,-100,0,0,100,0.00,40.00,0,-999,0,0.00
2013-3-20,49,40,28,-100,-100,-100,0,0,100,0.00,40.00,0,-999,0,0.00
2013-3-21,51,39,35,-100,-100,-100,0,0,100,0.00,40.00,0,-999,0,0.00
2013-3-22,57,42,32,-100,-100,-100,0,0,100,0.00,40.00,0,-999,0,0.00
2013-3-23,36,33,32,-100,-100,-100,0,0,100,0.00,40.00,0,-999,0,0.00
2013-3-24,35,30,22,-100,-100,-100,0,0,100,0.00,40.00,0,-999,0,0.00
2013-3-25,35,28,21,-100,-100,-100,0,0,100,0.00,40.00,0,-999,0,0.00
2013-3-26,50,34,15,-100,-100,-100,0,0,100,0.00,40.00,0,-999,0,0.00
2013-3-27,62,50,33,-100,-100,-100,0,0,100,0.00,40.00,0,-999,0,0.00
2013-3-28,67,53,30,-100,-100,-100,0,0,100,0.00,40.00,0,-999,0,0.00
2013-3-29,73,55,44,-100,-100,-100,0,0,100,0.00,40.00,0,-999,0,0.00
2013-3-30,74,61,53,-100,-100,-100,0,0,100,0.00,40.00,0,-999,0,0.00
2013-3-31,73,54,43,-100,-100,-100,0,0,100,0.00,40.00,0,-999,0,0.00